Volver al catálogo

IRIDIUM 155

ActivoComunicacionesPO
NORAD 43573·PAYLOAD·🇺🇸 United States

Lanzado Jul 25, 2018 desde Vandenberg Space Force Base

Loading…

Próximos Pases (próximas 24 horas)

TLE

ActualizadoSource: CelesTrak SupGP

Época: Sep 15, 2026, 01:37 UTC

1 43573C 18061E   26258.06770833 -.00000195  00000+0 -69878-4 0  2581
2 43573  86.4009  19.0789 0002162  93.4586  35.6590 14.34216278    18

Sigue IRIDIUM 155 en tiempo real con AllMySat

Download on the App Store